| time (UTC) | temp F | wind direction | speed MPH | gust MPH | rain 1hr in | rain 24hr in | rain mn in | humidity % | barometer mb |
| 20260508121602 | 47 | 221 | 11.0 | 15.0 | 0.00 | 0.00 | 0.00 | 48 | 1005.5 |
| 20260508120903 | 47 | 221 | 9.0 | 13.0 | 0.00 | 0.00 | 0.00 | 50 | 1005.4 |
| 20260508120003 | 46 | 230 | 9.0 | 12.0 | 0.00 | 0.00 | 0.00 | 51 | 1005.4 |
| 20260508115845 | 47 | 217 | 8.0 | 11.0 | 0.00 | 0.00 | 0.00 | 50 | 1005.3 |
| 20260508114812 | 45 | 199 | 6.0 | 9.0 | 0.00 | 0.00 | 0.00 | 52 | 1005.3 |
| 20260508114601 | 45 | 224 | 6.0 | 10.0 | 0.00 | 0.00 | 0.00 | 51 | 1005.4 |
| 20260508113748 | 45 | 201 | 6.0 | 9.0 | 0.00 | 0.00 | 0.00 | 52 | 1005.4 |
| 20260508113003 | 44 | 214 | 6.0 | 10.0 | 0.00 | 0.00 | 0.00 | 53 | 1005.5 |
| 20260508112803 | 44 | 221 | 6.0 | 10.0 | 0.00 | 0.00 | 0.00 | 53 | 1005.4 |
| 20260508111800 | 43 | 212 | 5.0 | 10.0 | 0.00 | 0.00 | 0.00 | 54 | 1005.5 |
| 20260508111603 | 43 | 219 | 7.0 | 11.0 | 0.00 | 0.00 | 0.00 | 54 | 1005.6 |
| 20260508110743 | 43 | 216 | 5.0 | 7.0 | 0.00 | 0.00 | 0.00 | 54 | 1005.5 |
| 20260508110008 | 42 | 212 | 5.0 | 7.0 | 0.00 | 0.00 | 0.00 | 54 | 1005.5 |
| 20260508105802 | 43 | 210 | 4.0 | 6.0 | 0.00 | 0.00 | 0.00 | 55 | 1005.5 |
| 20260508104759 | 42 | 211 | 3.0 | 5.0 | 0.00 | 0.00 | 0.00 | 55 | 1005.5 |
| 20260508104607 | 42 | 212 | 4.0 | 6.0 | 0.00 | 0.00 | 0.00 | 55 | 1005.6 |
| 20260508103735 | 43 | 210 | 4.0 | 5.0 | 0.00 | 0.00 | 0.00 | 54 | 1005.5 |
| 20260508103002 | 42 | 205 | 4.0 | 5.0 | 0.00 | 0.00 | 0.00 | 54 | 1005.6 |
| 20260508102714 | 43 | 211 | 3.0 | 4.0 | 0.00 | 0.00 | 0.00 | 54 | 1005.5 |
| 20260508101646 | 43 | 199 | 3.0 | 4.0 | 0.00 | 0.00 | 0.00 | 54 | 1005.7 |
| 20260508101602 | 42 | 206 | 3.0 | 5.0 | 0.00 | 0.00 | 0.00 | 54 | 1005.7 |
| 20260508100003 | 43 | 196 | 4.0 | 5.0 | 0.00 | 0.00 | 0.00 | 54 | 1005.7 |
| 20260508095538 | 43 | 202 | 3.0 | 4.0 | 0.00 | 0.00 | 0.00 | 53 | 1005.7 |
| 20260508094617 | 43 | 200 | 4.0 | 5.0 | 0.00 | 0.00 | 0.00 | 53 | 1005.7 |
| 20260508093403 | 44 | 196 | 4.0 | 6.0 | 0.00 | 0.00 | 0.00 | 52 | 1005.7 |
| 20260508093003 | 43 | 201 | 4.0 | 7.0 | 0.00 | 0.00 | 0.00 | 52 | 1005.8 |
| 20260508092340 | 44 | 196 | 5.0 | 6.0 | 0.00 | 0.00 | 0.00 | 51 | 1005.7 |
| 20260508091605 | 43 | 202 | 5.0 | 6.0 | 0.00 | 0.00 | 0.00 | 51 | 1005.8 |
| 20260508091335 | 44 | 207 | 4.0 | 5.0 | 0.00 | 0.00 | 0.00 | 51 | 1005.8 |
| 20260508090322 | 44 | 205 | 4.0 | 7.0 | 0.00 | 0.00 | 0.00 | 52 | 1005.8 |
| 20260508090004 | 43 | 213 | 5.0 | 7.0 | 0.00 | 0.00 | 0.00 | 52 | 1005.9 |
| 20260508085250 | 44 | 198 | 5.0 | 7.0 | 0.00 | 0.00 | 0.00 | 52 | 1005.8 |
| 20260508084602 | 44 | 192 | 5.0 | 8.0 | 0.00 | 0.00 | 0.00 | 52 | 1005.8 |
| 20260508084224 | 44 | 212 | 4.0 | 6.0 | 0.00 | 0.00 | 0.00 | 53 | 1005.8 |
| 20260508083225 | 44 | 193 | 4.0 | 6.0 | 0.00 | 0.00 | 0.00 | 53 | 1005.8 |
| 20260508083002 | 44 | 200 | 4.0 | 7.0 | 0.00 | 0.00 | 0.00 | 52 | 1005.9 |
| 20260508082157 | 45 | 186 | 3.0 | 6.0 | 0.00 | 0.00 | 0.00 | 51 | 1005.9 |
| 20260508081506 | 44 | 178 | 4.0 | 8.0 | 0.00 | 0.00 | 0.00 | 51 | 1006.0 |
| 20260508081209 | 45 | 203 | 4.0 | 7.0 | 0.00 | 0.00 | 0.00 | 51 | 1006.0 |
| 20260508080144 | 45 | 199 | 4.0 | 7.0 | 0.00 | 0.00 | 0.00 | 52 | 1006.0 |
| 20260508075145 | 45 | 188 | 3.0 | 5.0 | 0.00 | 0.00 | 0.00 | 51 | 1006.1 |
| 20260508074503 | 44 | 179 | 3.0 | 6.0 | 0.00 | 0.00 | 0.00 | 51 | 1006.2 |
| 20260508074202 | 45 | 164 | 2.0 | 5.0 | 0.00 | 0.00 | 0.00 | 51 | 1006.1 |
| 20260508073148 | 44 | 200 | 3.0 | 5.0 | 0.00 | 0.00 | 0.00 | 52 | 1006.2 |
| 20260508073104 | 44 | 146 | 2.0 | 6.0 | 0.00 | 0.00 | 0.00 | 52 | 1006.3 |
| 20260508072135 | 44 | 202 | 2.0 | 7.0 | 0.00 | 0.00 | 0.00 | 52 | 1006.3 |
| 20260508071505 | 44 | 167 | 3.0 | 8.0 | 0.00 | 0.00 | 0.00 | 52 | 1006.3 |
| 20260508071058 | 44 | 158 | 3.0 | 7.0 | 0.00 | 0.00 | 0.00 | 52 | 1006.3 |
| 20260508070104 | 44 | 161 | 3.0 | 6.0 | 0.00 | 0.00 | 0.00 | 53 | 1006.5 |
| 20260508070057 | 44 | 186 | 2.0 | 6.0 | 0.00 | 0.00 | 0.00 | 53 | 1006.4 |
| 20260508065100 | 45 | 167 | 2.0 | 6.0 | 0.00 | 0.00 | 0.00 | 52 | 1006.4 |
| 20260508064506 | 44 | 172 | 3.0 | 7.0 | 0.00 | 0.00 | 0.00 | 52 | 1006.5 |
| 20260508064031 | 44 | 159 | 1.0 | 3.0 | 0.00 | 0.00 | 0.00 | 53 | 1006.5 |
| 20260508063032 | 44 | 178 | 1.0 | 3.0 | 0.00 | 0.00 | 0.00 | 53 | 1006.6 |
| 20260508063009 | 43 | 184 | 1.0 | 4.0 | 0.00 | 0.00 | 0.00 | 53 | 1006.6 |
| 20260508061603 | 43 | 172 | 1.0 | 4.0 | 0.00 | 0.00 | 0.00 | 54 | 1006.7 |
| 20260508060942 | 43 | 155 | 1.0 | 3.0 | 0.00 | 0.00 | 0.00 | 55 | 1006.8 |
| 20260508060001 | 43 | 205 | 1.0 | 2.0 | 0.00 | 0.00 | 0.00 | 56 | 1006.9 |
| 20260508055915 | 43 | 208 | 0.0 | 2.0 | 0.00 | 0.00 | 0.00 | 56 | 1006.9 |
| 20260508054911 | 44 | 152 | 0.0 | 2.0 | 0.00 | 0.00 | 0.00 | 57 | 1006.8 |
| 20260508054603 | 43 | 165 | 0.0 | 3.0 | 0.00 | 0.00 | 0.00 | 57 | 1006.9 |
| 20260508053914 | 44 | 203 | 0.0 | 1.0 | 0.00 | 0.00 | 0.00 | 58 | 1006.9 |
| 20260508053005 | 43 | 210 | 1.0 | 2.0 | 0.00 | 0.00 | 0.00 | 57 | 1007.0 |
| 20260508052936 | 44 | 210 | 0.0 | 2.0 | 0.00 | 0.00 | 0.00 | 57 | 1007.0 |
| 20260508051603 | 43 | 188 | 1.0 | 3.0 | 0.00 | 0.00 | 0.00 | 56 | 1007.0 |
| 20260508050800 | 44 | 204 | 1.0 | 3.0 | 0.00 | 0.00 | 0.00 | 56 | 1007.1 |
| 20260508050001 | 43 | 196 | 2.0 | 3.0 | 0.00 | 0.00 | 0.00 | 56 | 1007.0 |
| 20260508045746 | 43 | 165 | 1.0 | 2.0 | 0.00 | 0.00 | 0.00 | 56 | 1007.0 |
| 20260508044718 | 43 | 200 | 0.0 | 1.0 | 0.00 | 0.00 | 0.00 | 58 | 1007.1 |
| 20260508044604 | 43 | 200 | 1.0 | 1.0 | 0.00 | 0.00 | 0.00 | 58 | 1007.2 |
| 20260508043718 | 44 | 211 | 0.0 | 0.0 | 0.00 | 0.00 | 0.00 | 57 | 1007.2 |
| 20260508043002 | 43 | 152 | 0.0 | 1.0 | 0.00 | 0.00 | 0.00 | 58 | 1007.2 |
| 20260508042731 | 44 | 152 | 0.0 | 0.0 | 0.00 | 0.00 | 0.00 | 58 | 1007.2 |
| 20260508041729 | 45 | 151 | 0.0 | 3.0 | 0.00 | 0.00 | 0.00 | 57 | 1007.3 |
| 20260508041502 | 45 | 162 | 0.0 | 3.0 | 0.00 | 0.00 | 0.00 | 56 | 1007.4 |
| 20260508040654 | 45 | 160 | 1.0 | 3.0 | 0.00 | 0.00 | 0.00 | 57 | 1007.3 |
| 20260508040104 | 44 | 172 | 1.0 | 3.0 | 0.00 | 0.00 | 0.00 | 58 | 1007.5 |
| 20260508035621 | 44 | 210 | 0.0 | 1.0 | 0.00 | 0.00 | 0.00 | 57 | 1007.4 |
| 20260508034559 | 44 | 210 | 0.0 | 0.0 | 0.00 | 0.00 | 0.00 | 54 | 1007.4 |
| 20260508034501 | 44 | 210 | 0.0 | 1.0 | 0.00 | 0.00 | 0.00 | 53 | 1007.5 |
| 20260508033614 | 45 | 210 | 0.0 | 0.0 | 0.00 | 0.00 | 0.00 | 52 | 1007.5 |
| 20260508033105 | 44 | 210 | 0.0 | 3.0 | 0.00 | 0.00 | 0.00 | 52 | 1007.6 |
| 20260508032559 | 45 | 210 | 0.0 | 2.0 | 0.00 | 0.00 | 0.00 | 52 | 1007.5 |
| 20260508031608 | 45 | 218 | 0.0 | 0.0 | 0.00 | 0.00 | 0.00 | 51 | 1007.6 |
| 20260508031503 | 44 | 217 | 0.0 | 1.0 | 0.00 | 0.00 | 0.00 | 51 | 1007.6 |
| 20260508030104 | 45 | 218 | 1.0 | 2.0 | 0.00 | 0.00 | 0.00 | 50 | 1007.7 |
| 20260508025421 | 46 | 218 | 0.0 | 1.0 | 0.00 | 0.00 | 0.00 | 49 | 1007.6 |
| 20260508024503 | 46 | 221 | 0.0 | 1.0 | 0.00 | 0.00 | 0.00 | 47 | 1007.7 |
| 20260508024355 | 47 | 221 | 0.0 | 0.0 | 0.00 | 0.00 | 0.00 | 46 | 1007.6 |
| 20260508023101 | 47 | 221 | 0.0 | 2.0 | 0.00 | 0.00 | 0.00 | 48 | 1007.6 |
| 20260508022218 | 48 | 221 | 0.0 | 0.0 | 0.00 | 0.00 | 0.00 | 46 | 1007.5 |
| 20260508021501 | 48 | 343 | 0.0 | 0.0 | 0.00 | 0.00 | 0.00 | 44 | 1007.4 |
| 20260508021224 | 49 | 343 | 0.0 | 0.0 | 0.00 | 0.00 | 0.00 | 44 | 1007.4 |
| 20260508020106 | 49 | 343 | 0.0 | 1.0 | 0.00 | 0.00 | 0.00 | 43 | 1007.3 |
| 20260508015118 | 51 | 343 | 0.0 | 0.0 | 0.00 | 0.00 | 0.00 | 42 | 1007.1 |
| 20260508014503 | 51 | 343 | 0.0 | 0.0 | 0.00 | 0.00 | 0.00 | 41 | 1007.0 |
| 20260508014128 | 52 | 343 | 0.0 | 0.0 | 0.00 | 0.00 | 0.00 | 40 | 1007.0 |
| 20260508013119 | 53 | 343 | 0.0 | 0.0 | 0.00 | 0.00 | 0.00 | 38 | 1006.9 |
| 20260508013102 | 52 | 343 | 0.0 | 0.0 | 0.00 | 0.00 | 0.00 | 38 | 1007.0 |
| 20260508012101 | 53 | 343 | 0.0 | 0.0 | 0.00 | 0.00 | 0.00 | 39 | 1006.9 |
| 20260508011502 | 53 | 343 | 0.0 | 3.0 | 0.00 | 0.00 | 0.00 | 38 | 1006.9 |
| 20260508011046 | 55 | 343 | 1.0 | 2.0 | 0.00 | 0.00 | 0.00 | 38 | 1006.9 |
| 20260508010106 | 55 | 335 | 1.0 | 4.0 | 0.00 | 0.00 | 0.00 | 35 | 1006.8 |
| 20260508010045 | 56 | 335 | 2.0 | 4.0 | 0.00 | 0.00 | 0.00 | 35 | 1006.8 |
| 20260508005010 | 56 | 331 | 3.0 | 5.0 | 0.00 | 0.00 | 0.00 | 35 | 1006.8 |
| 20260508004502 | 56 | 335 | 4.0 | 6.0 | 0.00 | 0.00 | 0.00 | 35 | 1006.8 |
| 20260508003944 | 57 | 351 | 4.0 | 9.0 | 0.00 | 0.00 | 0.00 | 35 | 1006.8 |
| 20260508003108 | 57 | 326 | 6.0 | 10.0 | 0.00 | 0.00 | 0.00 | 31 | 1006.8 |
| 20260508002934 | 57 | 314 | 6.0 | 10.0 | 0.00 | 0.00 | 0.00 | 33 | 1006.8 |
| 20260508001924 | 58 | 300 | 6.0 | 10.0 | 0.00 | 0.00 | 0.00 | 31 | 1006.8 |
| 20260508001502 | 57 | 291 | 5.0 | 9.0 | 0.00 | 0.00 | 0.00 | 31 | 1006.8 |
| 20260508000907 | 58 | 333 | 6.0 | 11.0 | 0.00 | 0.00 | 0.00 | 29 | 1006.8 |
| 20260507235853 | 58 | 295 | 6.0 | 11.0 | 0.00 | 0.00 | 0.00 | 32 | 1006.8 |
| 20260507234819 | 58 | 324 | 6.0 | 11.0 | 0.00 | 0.00 | 0.00 | 32 | 1006.8 |
| 20260507234503 | 58 | 321 | 8.0 | 12.0 | 0.00 | 0.00 | 0.00 | 30 | 1007.0 |
| 20260507233804 | 58 | 326 | 6.0 | 10.0 | 0.00 | 0.00 | 0.00 | 30 | 1007.0 |
| 20260507233103 | 58 | 306 | 5.0 | 11.0 | 0.00 | 0.00 | 0.00 | 31 | 1007.1 |
| 20260507232815 | 58 | 306 | 7.0 | 13.0 | 0.00 | 0.00 | 0.00 | 28 | 1007.1 |
| 20260507231816 | 58 | 268 | 9.0 | 19.0 | 0.00 | 0.00 | 0.00 | 29 | 1007.1 |
| 20260507231503 | 57 | 280 | 8.0 | 20.0 | 0.00 | 0.00 | 0.00 | 29 | 1007.2 |
| 20260507230809 | 58 | 326 | 13.0 | 19.0 | 0.00 | 0.00 | 0.00 | 29 | 1007.1 |
| 20260507230107 | 57 | 306 | 13.0 | 17.0 | 0.00 | 0.00 | 0.00 | 29 | 1007.2 |
| 20260507225759 | 58 | 295 | 6.0 | 16.0 | 0.00 | 0.00 | 0.00 | 29 | 1007.3 |
| 20260507224756 | 57 | 309 | 11.0 | 19.0 | 0.00 | 0.00 | 0.00 | 29 | 1007.3 |
| 20260507224505 | 57 | 304 | 10.0 | 18.0 | 0.00 | 0.00 | 0.00 | 29 | 1007.5 |
| 20260507223806 | 57 | 317 | 14.0 | 19.0 | 0.00 | 0.00 | 0.00 | 29 | 1007.4 |
| 20260507223103 | 57 | 327 | 16.0 | 20.0 | 0.00 | 0.00 | 0.00 | 31 | 1007.4 |
| 20260507222815 | 57 | 309 | 7.0 | 16.0 | 0.00 | 0.00 | 0.00 | 32 | 1007.4 |
| 20260507221813 | 57 | 285 | 10.0 | 16.0 | 0.00 | 0.00 | 0.00 | 30 | 1007.4 |
| 20260507221505 | 57 | 286 | 11.0 | 17.0 | 0.00 | 0.00 | 0.00 | 30 | 1007.5 |
| 20260507220751 | 57 | 302 | 10.0 | 17.0 | 0.00 | 0.00 | 0.00 | 30 | 1007.5 |
| 20260507215744 | 57 | 328 | 10.0 | 18.0 | 0.00 | 0.00 | 0.00 | 32 | 1007.5 |
| 20260507214747 | 57 | 285 | 10.0 | 18.0 | 0.00 | 0.00 | 0.00 | 31 | 1007.6 |
| 20260507214503 | 57 | 283 | 12.0 | 17.0 | 0.00 | 0.00 | 0.00 | 29 | 1007.7 |
| 20260507213714 | 57 | 276 | 9.0 | 22.0 | 0.00 | 0.00 | 0.00 | 30 | 1007.7 |
| 20260507213105 | 56 | 300 | 8.0 | 23.0 | 0.00 | 0.00 | 0.00 | 30 | 1007.8 |
| 20260507212645 | 57 | 279 | 13.0 | 22.0 | 0.00 | 0.00 | 0.00 | 29 | 1007.7 |
| 20260507211652 | 56 | 327 | 11.0 | 21.0 | 0.00 | 0.00 | 0.00 | 29 | 1007.9 |
| 20260507211616 | 56 | 301 | 10.0 | 21.0 | 0.00 | 0.00 | 0.00 | 32 | 1007.9 |
| 20260507210706 | 56 | 291 | 9.0 | 21.0 | 0.00 | 0.00 | 0.00 | 31 | 1008.0 |
| 20260507210002 | 55 | 332 | 13.0 | 22.0 | 0.00 | 0.00 | 0.00 | 32 | 1008.0 |
| 20260507205637 | 55 | 319 | 9.0 | 20.0 | 0.00 | 0.00 | 0.00 | 29 | 1008.0 |
| 20260507204646 | 55 | 299 | 9.0 | 22.0 | 0.00 | 0.00 | 0.00 | 32 | 1008.2 |
| 20260507204602 | 55 | 312 | 14.0 | 21.0 | 0.00 | 0.00 | 0.00 | 31 | 1008.1 |
| 20260507203639 | 55 | 313 | 9.0 | 22.0 | 0.00 | 0.00 | 0.00 | 31 | 1008.3 |
| 20260507203004 | 55 | 305 | 6.0 | 14.0 | 0.00 | 0.00 | 0.00 | 31 | 1008.5 |
| 20260507202642 | 55 | 345 | 7.0 | 18.0 | 0.00 | 0.00 | 0.00 | 31 | 1008.4 |
| 20260507201617 | 55 | 307 | 10.0 | 19.0 | 0.00 | 0.00 | 0.00 | 32 | 1008.6 |
| 20260507201613 | 56 | 309 | 9.0 | 18.0 | 0.00 | 0.00 | 0.00 | 32 | 1008.5 |
| 20260507200543 | 54 | 27 | 4.0 | 20.0 | 0.00 | 0.00 | 0.00 | 32 | 1008.5 |
| 20260507200002 | 53 | 21 | 5.0 | 21.0 | 0.00 | 0.00 | 0.00 | 31 | 1008.8 |
| 20260507195527 | 54 | 326 | 9.0 | 20.0 | 0.00 | 0.00 | 0.00 | 32 | 1008.9 |
| 20260507194603 | 53 | 340 | 10.0 | 19.0 | 0.00 | 0.00 | 0.00 | 31 | 1008.9 |
| 20260507194532 | 54 | 342 | 10.0 | 18.0 | 0.00 | 0.00 | 0.00 | 31 | 1008.9 |
| 20260507193519 | 53 | 328 | 4.0 | 18.0 | 0.00 | 0.00 | 0.00 | 31 | 1008.9 |
| 20260507193003 | 53 | 320 | 4.0 | 19.0 | 0.00 | 0.00 | 0.00 | 31 | 1009.1 |
| 20260507192515 | 53 | 336 | 11.0 | 21.0 | 0.00 | 0.00 | 0.00 | 32 | 1009.1 |
| 20260507191605 | 53 | 323 | 14.0 | 22.0 | 0.00 | 0.00 | 0.00 | 31 | 1009.1 |
| 20260507191534 | 53 | 321 | 12.0 | 21.0 | 0.00 | 0.00 | 0.00 | 31 | 1009.1 |
| 20260507190004 | 52 | 322 | 5.0 | 19.0 | 0.00 | 0.00 | 0.00 | 34 | 1009.2 |
| 20260507185427 | 53 | 333 | 8.0 | 19.0 | 0.00 | 0.00 | 0.00 | 35 | 1009.1 |
| 20260507184603 | 52 | 319 | 11.0 | 20.0 | 0.00 | 0.00 | 0.00 | 35 | 1009.3 |
| 20260507184444 | 52 | 307 | 11.0 | 19.0 | 0.00 | 0.00 | 0.00 | 32 | 1009.3 |
| 20260507183416 | 52 | 352 | 9.0 | 17.0 | 0.00 | 0.00 | 0.00 | 33 | 1009.4 |
| 20260507183010 | 51 | 288 | 7.0 | 17.0 | 0.00 | 0.00 | 0.00 | 35 | 1009.5 |
| 20260507181605 | 51 | 309 | 11.0 | 22.0 | 0.00 | 0.00 | 0.00 | 34 | 1009.5 |
| 20260507181233 | 51 | 283 | 9.0 | 21.0 | 0.00 | 0.00 | 0.00 | 35 | 1009.4 |
| 20260507180002 | 51 | 341 | 9.0 | 20.0 | 0.00 | 0.00 | 0.00 | 35 | 1009.7 |
| 20260507175038 | 51 | 278 | 10.0 | 21.0 | 0.00 | 0.00 | 0.00 | 36 | 1009.6 |
| 20260507174604 | 50 | 307 | 9.0 | 22.0 | 0.00 | 0.00 | 0.00 | 38 | 1009.8 |
| 20260507174044 | 51 | 331 | 10.0 | 20.0 | 0.00 | 0.00 | 0.00 | 35 | 1009.7 |
| 20260507173025 | 51 | 281 | 10.0 | 19.0 | 0.00 | 0.00 | 0.00 | 37 | 1009.9 |
| 20260507173007 | 50 | 264 | 12.0 | 20.0 | 0.00 | 0.00 | 0.00 | 35 | 1009.9 |
| 20260507172046 | 51 | 297 | 7.0 | 14.0 | 0.00 | 0.00 | 0.00 | 35 | 1009.9 |
| 20260507171606 | 50 | 308 | 8.0 | 15.0 | 0.00 | 0.00 | 0.00 | 39 | 1010.0 |
| 20260507171014 | 50 | 347 | 5.0 | 15.0 | 0.00 | 0.00 | 0.00 | 39 | 1010.0 |
| 20260507170003 | 50 | 344 | 10.0 | 17.0 | 0.00 | 0.00 | 0.00 | 40 | 1010.2 |
| 20260507165940 | 50 | 332 | 8.0 | 16.0 | 0.00 | 0.00 | 0.00 | 40 | 1010.1 |
| 20260507165001 | 50 | 342 | 6.0 | 16.0 | 0.00 | 0.00 | 0.00 | 39 | 1010.2 |
| 20260507164607 | 50 | 334 | 4.0 | 13.0 | 0.00 | 0.00 | 0.00 | 45 | 1010.4 |
| 20260507163002 | 49 | 322 | 12.0 | 17.0 | 0.00 | 0.00 | 0.00 | 41 | 1010.6 |
| 20260507161725 | 49 | 283 | 4.0 | 14.0 | 0.00 | 0.00 | 0.00 | 41 | 1010.5 |
| 20260507160703 | 48 | 49 | 7.0 | 15.0 | 0.00 | 0.00 | 0.00 | 41 | 1010.6 |
| 20260507160003 | 48 | 283 | 10.0 | 16.0 | 0.00 | 0.00 | 0.00 | 40 | 1010.7 |
| 20260507155629 | 49 | 312 | 3.0 | 12.0 | 0.00 | 0.00 | 0.00 | 41 | 1010.6 |
| 20260507154503 | 48 | 125 | 1.0 | 6.0 | 0.00 | 0.00 | 0.00 | 43 | 1010.7 |
| 20260507153543 | 47 | 308 | 4.0 | 10.0 | 0.00 | 0.00 | 0.00 | 45 | 1010.8 |
| 20260507153111 | 47 | 281 | 3.0 | 9.0 | 0.00 | 0.00 | 0.00 | 44 | 1010.8 |
| 20260507152520 | 47 | 295 | 5.0 | 10.0 | 0.00 | 0.00 | 0.00 | 46 | 1010.8 |
| 20260507151502 | 47 | 309 | 4.0 | 8.0 | 0.00 | 0.00 | 0.00 | 48 | 1011.0 |
| 20260507151452 | 48 | 278 | 2.0 | 7.0 | 0.00 | 0.00 | 0.00 | 48 | 1010.9 |
| 20260507150501 | 47 | 333 | 1.0 | 7.0 | 0.00 | 0.00 | 0.00 | 45 | 1010.9 |
| 20260507145434 | 47 | 200 | 1.0 | 6.0 | 0.00 | 0.00 | 0.00 | 49 | 1010.9 |
| 20260507144506 | 47 | 344 | 1.0 | 6.0 | 0.00 | 0.00 | 0.00 | 48 | 1011.1 |
| 20260507143114 | 45 | 319 | 2.0 | 5.0 | 0.00 | 0.00 | 0.00 | 53 | 1011.1 |
| 20260507141502 | 44 | 312 | 3.0 | 6.0 | 0.00 | 0.00 | 0.00 | 54 | 1011.2 |
| 20260507141004 | 44 | 323 | 1.0 | 5.0 | 0.00 | 0.00 | 0.00 | 56 | 1011.2 |
| 20260507140017 | 44 | 340 | 0.0 | 4.0 | 0.00 | 0.00 | 0.00 | 62 | 1011.3 |
| 20260507135038 | 43 | 283 | 0.0 | 3.0 | 0.00 | 0.00 | 0.00 | 62 | 1011.4 |
| 20260507134614 | 42 | 259 | 0.0 | 2.0 | 0.00 | 0.00 | 0.00 | 65 | 1011.4 |
| 20260507134051 | 42 | 288 | 0.0 | 2.0 | 0.00 | 0.00 | 0.00 | 65 | 1011.3 |
| 20260507133106 | 42 | 285 | 0.0 | 2.0 | 0.00 | 0.00 | 0.00 | 63 | 1011.3 |
| 20260507133002 | 42 | 297 | 1.0 | 3.0 | 0.00 | 0.00 | 0.00 | 63 | 1011.4 |
| 20260507132045 | 43 | 86 | 0.0 | 1.0 | 0.00 | 0.00 | 0.00 | 64 | 1011.3 |
| 20260507131602 | 42 | 106 | 0.0 | 1.0 | 0.00 | 0.00 | 0.00 | 66 | 1011.4 |
| 20260507131044 | 42 | 124 | 0.0 | 0.0 | 0.00 | 0.00 | 0.00 | 67 | 1011.5 |
| 20260507130018 | 40 | 103 | 0.0 | 1.0 | 0.00 | 0.00 | 0.00 | 71 | 1011.5 |
| 20260507130002 | 40 | 103 | 0.0 | 2.0 | 0.00 | 0.00 | 0.00 | 71 | 1011.6 |
| 20260507124602 | 38 | 103 | 0.0 | 1.0 | 0.00 | 0.00 | 0.00 | 75 | 1011.6 |
| 20260507123824 | 37 | 103 | 0.0 | 0.0 | 0.00 | 0.00 | 0.00 | 79 | 1011.6 |
| 20260507123006 | 34 | 103 | 0.0 | 1.0 | 0.00 | 0.00 | 0.00 | 83 | 1011.7 |
| 20260507122844 | 34 | 103 | 0.0 | 0.0 | 0.00 | 0.00 | 0.00 | 83 | 1011.6 |